Location: Augustenthal
(51.7167°N, 10.2833°E)
Time: 08:29:10
(UTC+00:00)

Okean 2 Rocket - Pass Details

Date: 18 May 2021
Orbit: 617 x 641 km, 82.5° (Epoch: 20 June)

Event Time Altitude Azimuth Distance (km) Brightness Sun altitude
Rises 22:23:08 0° 352° (N) 2,905 8.2 -17.6°
Reaches altitude 10° 22:25:26 10° 358° (N) 1,994 6.9 -17.7°
Maximum altitude 22:29:44 51° 75° (ENE) 780 3.5 -17.8°
Enters shadow 22:31:30 31° 134° (SE) 1,084 3.9 -17.9°
